Hartford, CT

4:10 AM EDT on April 25, 2017 (GMT -0400)
Hartford-brainard

Weather History for KHFD - January, 2014

Change the Weather History Date:

Sunday, January 5, 2014

  Actual Average Record
Temperature  
Mean Temperature 21 °F -  
Max Temperature 33 °F 35 °F 59 °F (1993)
Min Temperature 9 °F 18 °F -4 °F (1981)
Degree Days  
Heating Degree Days 44    
Moisture  
Dew Point 19 °F    
Average Humidity 87    
Maximum Humidity 96    
Minimum Humidity 61    
Precipitation  
Precipitation 0.09 in - - ()
Sea Level Pressure  
Sea Level Pressure 30.23 in    
Wind  
Wind Speed 2 mph (NNE)    
Max Wind Speed 8 mph    
Max Gust Speed -    
Visibility 3 miles    
Events Fog , Rain    
Averages and records for this station are not official NWS values.
T = Trace of Precipitation, MM = Missing Value Source: NWS Daily Summary

Daily Weather History Graph

Daily Weather History Graph

Search for Another Location

Airport or City:

Trip Planner

Search our weather history database for the weather conditions in past years. The results will help you decide how hot, cold, wet, or windy it might be!

Date:

Astronomy

Jan. 05, 2014 Rise Set
Actual Time 7:17 AM EST 4:34 PM EST
Civil Twilight 6:46 AM EST 5:05 PM EST
Nautical Twilight 6:11 AM EST 5:40 PM EST
Astronomical Twilight 5:38 AM EST 6:14 PM EST
Moon 9:53 AM EST (1/5) 10:04 PM EST (1/5)
Length of Visible Light 10h 19m
Length of Day
9h 16m
Waxing Crescent, 24% of the Moon is Illuminated
Jan 5
Waxing Crescent
Jan 7
First Quarter
Jan 15
Full
Jan 24
Last Quarter
Jan 30
New

Hourly Weather History & Observations

Time (EST) Temp. Windchill Dew Point Humidity Pressure Visibility Wind Dir Wind Speed Gust Speed Precip Events Conditions
12:38 AM 12.9 °F 3.8 °F 10.0 °F 88% 30.31 in 10.0 mi South 5.8 mph - N/A   Partly Cloudy
12:53 AM 14.0 °F 8.2 °F 10.9 °F 88% 30.30 in 9.0 mi South 3.5 mph - N/A   Scattered Clouds
1:53 AM 12.0 °F - 9.0 °F 88% 30.29 in 8.0 mi Calm Calm - N/A   Clear
2:53 AM 10.0 °F - 6.1 °F 84% 30.30 in 7.0 mi Calm Calm - N/A   Clear
3:38 AM 10.9 °F - 8.1 °F 88% 30.28 in 5.0 mi Calm Calm - N/A   Partly Cloudy
3:53 AM 12.0 °F - 7.0 °F 80% 30.28 in 6.0 mi Calm Calm - N/A   Haze
4:13 AM 10.9 °F - 8.1 °F 88% 30.29 in 6.0 mi Calm Calm - N/A   Mostly Cloudy
4:51 AM 10.4 °F - 8.6 °F 92% 30.28 in 6.0 mi Calm Calm - N/A   Scattered Clouds
4:53 AM 10.9 °F - 7.0 °F 84% 30.28 in 6.0 mi Calm Calm - N/A   Partly Cloudy
4:59 AM 10.9 °F 4.7 °F 7.0 °F 84% 30.29 in 1.5 mi SSW 3.5 mph - N/A   Scattered Clouds
5:07 AM 12.0 °F 5.9 °F 8.1 °F 84% 30.29 in 1.0 mi SSW 3.5 mph - N/A   Mist
5:10 AM 12.0 °F 5.9 °F 9.0 °F 88% 30.29 in 2.5 mi SSW 3.5 mph - N/A   Partly Cloudy
5:17 AM 12.0 °F 4.1 °F 9.0 °F 88% 30.29 in 7.0 mi SSW 4.6 mph - N/A   Partly Cloudy
5:53 AM 12.0 °F 5.9 °F 9.0 °F 88% 30.30 in 7.0 mi ENE 3.5 mph - N/A   Clear
6:35 AM 12.0 °F - 7.0 °F 80% 30.31 in 1.2 mi Calm Calm - N/A   Haze
6:42 AM 12.0 °F - 9.0 °F 88% 30.31 in 0.2 mi Calm Calm - N/A Fog Light Freezing Fog
6:53 AM 12.0 °F - 9.0 °F 88% 30.32 in 0.2 mi Calm Calm - N/A Fog Light Freezing Fog
7:07 AM 9.0 °F - 5.0 °F 84% 30.31 in 1.2 mi Calm Calm - N/A   Partly Cloudy
7:16 AM 9.0 °F - 6.1 °F 88% 30.31 in 0.8 mi Calm Calm - N/A   Clear
7:49 AM 12.2 °F - 8.6 °F 85% 30.32 in 0.2 mi Calm Calm - N/A Fog Light Freezing Fog
7:53 AM 12.0 °F 5.9 °F 10.9 °F 95% 30.32 in 0.2 mi SSE 3.5 mph - N/A Fog Light Freezing Fog
8:12 AM 14.0 °F - 10.9 °F 88% 30.33 in 1.8 mi Calm Calm - N/A   Scattered Clouds
8:14 AM 14.0 °F - 10.9 °F 88% 30.33 in 3.0 mi Calm Calm - N/A   Scattered Clouds
8:27 AM 14.0 °F - 10.9 °F 88% 30.33 in 1.8 mi Calm Calm - N/A   Partly Cloudy
8:35 AM 15.1 °F - 12.0 °F 88% 30.33 in 0.5 mi Calm Calm - N/A Fog Light Freezing Fog
8:41 AM 15.1 °F - 12.0 °F 88% 30.33 in 1.5 mi Calm Calm - N/A   Partly Cloudy
8:44 AM 14.0 °F - 10.0 °F 84% 30.34 in 3.0 mi Calm Calm - N/A   Partly Cloudy
8:49 AM 14.0 °F - 10.4 °F 86% 30.34 in 1.8 mi Calm Calm - N/A   Partly Cloudy
8:51 AM 14.0 °F - 10.4 °F 86% 30.33 in 0.8 mi Calm Calm - N/A   Mist
8:53 AM 14.0 °F - 10.0 °F 84% 30.34 in 0.5 mi Calm Calm - N/A Fog Light Freezing Fog
9:03 AM 14.0 °F - 10.0 °F 84% 30.33 in 2.0 mi Calm Calm - N/A   Clear
9:10 AM 15.1 °F - 10.9 °F 84% 30.34 in 5.0 mi North - - N/A   Partly Cloudy
9:53 AM 19.9 °F - 16.0 °F 85% 30.35 in 7.0 mi Calm Calm - N/A   Overcast
10:53 AM 23.0 °F - 19.0 °F 85% 30.32 in 7.0 mi Calm Calm - N/A   Overcast
11:53 AM 28.0 °F 24.2 °F 19.9 °F 72% 30.29 in 7.0 mi NE 3.5 mph - N/A   Overcast
12:53 PM 32.0 °F - 19.9 °F 61% 30.25 in 7.0 mi Calm Calm - N/A   Overcast
1:53 PM 33.1 °F 28.7 °F 26.1 °F 75% 30.23 in 9.0 mi SSE 4.6 mph - N/A   Overcast
2:05 PM 33.1 °F 28.7 °F 27.0 °F 78% 30.23 in 8.0 mi South 4.6 mph - N/A   Overcast
2:30 PM 33.1 °F 30.0 °F 28.9 °F 85% 30.23 in 2.0 mi South 3.5 mph - N/A   Overcast
2:38 PM 33.1 °F - 28.9 °F 85% 30.23 in 1.2 mi Calm Calm - 0.01 in   Overcast
2:53 PM 33.1 °F - 30.0 °F 89% 30.24 in 1.0 mi Calm Calm - 0.01 in Rain Light Rain
3:22 PM 33.1 °F - 30.0 °F 89% 30.22 in 0.8 mi Calm Calm - 0.01 in   Overcast
3:31 PM 33.1 °F - 30.0 °F 89% 30.22 in 0.8 mi Calm Calm - 0.01 in   Overcast
3:42 PM 33.1 °F - 30.0 °F 89% 30.22 in 1.2 mi Calm Calm - 0.01 in   Overcast
3:53 PM 33.1 °F - 30.0 °F 89% 30.22 in 2.0 mi Calm Calm - 0.01 in   Overcast
4:29 PM 33.1 °F 28.7 °F 30.0 °F 89% 30.20 in 1.8 mi NNE 4.6 mph - N/A   Overcast
4:39 PM 32.0 °F 26.4 °F 30.0 °F 92% 30.20 in 2.5 mi NNE 5.8 mph - N/A   Overcast
4:53 PM 32.0 °F 27.5 °F 28.9 °F 88% 30.20 in 2.5 mi NE 4.6 mph - N/A   Overcast
5:53 PM 32.0 °F 27.5 °F 28.9 °F 88% 30.18 in 2.5 mi North 4.6 mph - N/A   Overcast
6:00 PM 32.0 °F 28.7 °F 30.0 °F 92% 30.17 in 2.5 mi North 3.5 mph - N/A   Overcast
6:15 PM 32.0 °F 27.5 °F 28.9 °F 88% 30.16 in 2.5 mi NNE 4.6 mph - N/A   Overcast
6:42 PM 32.0 °F 26.4 °F 28.9 °F 88% 30.15 in 2.5 mi NNW 5.8 mph - N/A   Overcast
6:53 PM 30.9 °F 24.3 °F 28.9 °F 92% 30.14 in 2.0 mi North 6.9 mph - N/A   Overcast
7:01 PM 30.9 °F 27.5 °F 28.9 °F 92% 30.14 in 1.8 mi North 3.5 mph - N/A   Overcast
7:29 PM 32.0 °F 25.6 °F 28.9 °F 88% 30.12 in 1.8 mi North 6.9 mph - N/A   Overcast
7:53 PM 30.9 °F 26.2 °F 30.0 °F 96% 30.11 in 1.2 mi North 4.6 mph - N/A   Overcast
8:07 PM 30.9 °F 23.5 °F 28.9 °F 92% 30.10 in 1.0 mi NNW 8.1 mph - N/A   Overcast
8:27 PM 30.9 °F 24.3 °F 28.9 °F 92% 30.08 in 0.8 mi NNW 6.9 mph - N/A   Overcast
8:53 PM 30.9 °F 25.2 °F 28.9 °F 92% 30.07 in 0.5 mi North 5.8 mph - N/A Fog Light Freezing Fog
9:24 PM 30.9 °F 26.2 °F 28.9 °F 92% 30.04 in 0.5 mi North 4.6 mph - 0.00 in Fog , Rain Light Freezing Rain
9:53 PM 30.9 °F 24.3 °F 28.9 °F 92% 30.00 in 0.8 mi North 6.9 mph - 0.01 in Rain Light Freezing Rain
10:17 PM 30.9 °F 25.2 °F 28.9 °F 92% 29.98 in 1.2 mi NNW 5.8 mph - 0.01 in Rain Light Freezing Rain
10:53 PM 30.9 °F 26.2 °F 30.0 °F 96% 29.94 in 1.2 mi North 4.6 mph - 0.05 in   Overcast
11:11 PM 30.9 °F - 30.0 °F 96% 29.92 in 1.0 mi Calm Calm - 0.01 in   Overcast
11:22 PM 30.9 °F - 30.0 °F 96% 29.90 in 1.2 mi Calm Calm - 0.01 in   Overcast
11:53 PM 32.0 °F 27.5 °F 30.0 °F 92% 29.87 in 2.0 mi North 4.6 mph - 0.01 in   Overcast